Location: Bon Acre
(42.6442°N, 73.5758°W)
Time: 03:44:23
(UTC+00:00)

SL-08 R/B - Pass Details

Date: 12 March 2026
Orbit: 946 x 992 km, 83.0° (Epoch: 13 April)

Event Time Altitude Azimuth Distance (km) Brightness Sun altitude
Exits shadow 01:18:41 15° 35° (NE) 2,312 6.3 -26.5°
Drops below altitude 10° 01:19:53 10° 28° (NNE) 2,676 6.7 -26.7°
Sets 01:22:40 0° 18° (NNE) 3,624 7.5 -27.2°
